Location: Blue Moon Observatory
(43.0710°N, 82.8810°W)
Time: 04:20:03
(UTC-05:00)

Tiangong 1 - Visible Passes

Search period start: 16 January 2018 00:00
Search period end: 26 January 2018 00:00
Orbit: 265 x 288 km, 42.8° (Epoch: 15 January)

Date Brightness Start Highest point End Pass type
(mag) Time Alt. Az. Time Alt. Az. Time Alt. Az.
16 Jan 1.4 17:57:28 10° SW 17:59:49 37° SSE 18:02:09 10° E visible
16 Jan 3.6 19:31:34 10° W 19:32:18 17° W 19:32:18 17° W visible
17 Jan 0.9 17:57:18 10° WSW 17:59:44 55° SSE 18:02:10 10° E visible
17 Jan 3.6 19:31:32 10° W 19:32:18 17° W 19:32:18 17° W visible
18 Jan 0.5 17:57:04 10° WSW 17:59:32 73° S 18:01:59 10° E visible
18 Jan 3.5 19:31:21 10° W 19:32:10 18° W 19:32:10 18° W visible
19 Jan 0.4 17:56:42 10° W 17:59:11 84° S 18:01:39 10° E visible
19 Jan 3.4 19:31:01 10° W 19:31:55 19° W 19:31:55 19° W visible
20 Jan 0.4 17:56:13 10° W 17:58:41 86° S 18:01:08 10° E visible
20 Jan 3.3 19:30:34 10° W 19:31:36 20° WSW 19:31:36 20° WSW visible
21 Jan 3.3 19:30:03 10° W 19:31:13 19° WSW 19:31:13 19° WSW visible
22 Jan 3.4 19:29:36 10° WSW 19:30:49 15° SW 19:30:49 15° SW visible
